Location: Buchdorf
(48.7842°N, 10.8275°E)
Time: 11:18:09
(UTC+00:00)

USA 186 - Pass Details

Date: 09 April 2020
Orbit: 263 x 446 km, 96.9° (Epoch: 25 May)

Event Time Altitude Azimuth Distance (km) Brightness Sun altitude
Rises 19:32:46 0° 198° (SSW) 2,406 5.5 -14.9°
Reaches altitude 10° 19:35:12 10° 216° (SW) 1,517 4.6 -15.3°
Maximum altitude 19:37:40 20° 265° (W) 1,031 4.4 -15.6°
Drops below altitude 10° 19:40:03 10° 315° (NW) 1,459 5.8 -15.9°
Sets 19:42:20 0° 334° (NNW) 2,283 6.6 -16.2°
